AirNav   Air Wisconsin Up To $57,000 Bonus
 
 664 users online  

36PA Episcopal Hospital Heliport
Philadelphia, Pennsylvania, USA

GOING TO PHILADELPHIA?


FAA INFORMATION EFFECTIVE 02 JANUARY 2020

Location

FAA Identifier: 36PA
Lat/Long: 39-59-24.6700N 075-07-49.2900W
39-59.411167N 075-07.821500W
39.9901861,-75.1303583
(estimated)
Elevation: 74 ft. / 23 m (estimated)
Variation: 12W (1995)
Time zone: UTC -5 (UTC -4 during Daylight Saving Time)
Zip code: 19133

Heliport Operations

Heliport use: Private use, MEDICAL USE.
Activation date: 08/1998
Control tower: no
ARTCC: NEW YORK CENTER
FSS: WILLIAMSPORT FLIGHT SERVICE STATION
Attendance: CONTINUOUS
Wind indicator: lighted
Segmented circle: no
Lights: FOR PERIMETER LGTS CALL AMGR.

Heliport Communications

WX ASOS at PNE (8 nm NE): 121.15 (215-677-0146)
WX ASOS at PHL (9 nm SW): PHONE 215-492-9617
WX AWOS-3 at LOM (11 nm NW): 118.925 (215-646-1068)
WX ASOS at VAY (13 nm E): 119.325 (609-267-1176)

Nearby radio navigation aids

VOR radial/distance  VOR name  Freq  Var
ARDr223/18.8YARDLEY VOR/DME108.2010W
OODr031/22.7WOODSTOWN VORTAC112.8010W
PTWr134/24.1POTTSTOWN VORTAC116.5009W
GXUr279/24.6MC GUIRE VORTAC110.6012W
MXEr089/25.2MODENA VORTAC113.2009W
VCNr355/28.2CEDAR LAKE VOR/DME115.2010W
DQOr060/28.9DUPONT VORTAC114.0010W
RBVr256/31.8ROBBINSVILLE VORTAC113.8010W
CYNr298/33.8COYLE VORTAC113.4010W
SBJr217/39.8SOLBERG VOR/DME112.9010W

 
NDB name  Hdg/Dist  Freq  Var  ID
AMBLER151/10.827512WING .. -. --.
RAINBOW011/34.336311WRNB .-. -. -...
LAKEHURST276/36.739611WNEL -. . .-..

Heliport Services

Runway Information

Helipad H1

Dimensions: 45 x 45 ft. / 14 x 14 m
Surface: mats
Runway edge lights: PERI
Runway edge markings: WHITE BORDER PAINT; WHITE HOSPITAL CROSS WITH RED 'H' IN CENTER.
Operational restrictions: INGRESS 060 & 160; EGRESS 240 & 340.
Latitude: 39-59.411167N
Longitude: 075-07.821500W
Elevation: 74.0 ft.
Traffic pattern: leftleft

Heliport Ownership and Management from official FAA records

Ownership: Privately-owned
Owner: EPISCOPAL HOSPITAL
100 EAST LEHIGH AVENUE
PHILADELPHIA, PA 19125
Phone (215) 707-7000
Manager: MATTHEW MCCLOSKEY
100 EAST LEHIGH AVENUE
PHILADELPHIA, PA 19125
Phone (215) 707-1067

Additional Remarks

FOR CD CTC PHILADELPHIA APCH AT 800-354-9884.

Instrument Procedures

There are no published instrument procedures at 36PA.

Some nearby airports with instrument procedures:

KPNE - Northeast Philadelphia Airport (8 nm NE)
KPHL - Philadelphia International Airport (9 nm SW)
KLOM - Wings Field Airport (11 nm NW)
KVAY - South Jersey Regional Airport (13 nm E)
19N - Camden County Airport (15 nm SE)
N14 - Flying W Airport (15 nm E)
17N - Cross Keys Airport (18 nm S)
N10 - Perkiomen Valley Airport (19 nm NW)
7N7 - Spitfire Aerodrome (20 nm SW)
 
Loc | Ops | Rwys | IFR | FBO | Links
Com | Nav | Svcs | Stats | Notes
Area around 36PA (Episcopal Hospital Heliport)
 
Road maps at: MapQuest Bing Google
 
Aerial photo
No photo
 
Sectional chart

 
Airport distance calculator
Flying to Episcopal Hospital Heliport? Find the distance to fly.

From to 36PA

Sunrise and sunset
Times for 29-Jan-2020
 Local
(UTC-5)
 Zulu
(UTC)
Morning civil twilight06:4411:44
Sunrise07:1312:13
Sunset17:1522:15
Evening civil twilight17:4322:43

Current date and time
Zulu (UTC)  29-Jan-2020 08:54:44
Local (UTC-5)  29-Jan-2020 03:54:44
 
METAR
KPNE 
8nm NE 
290754Z AUTO 32006KT 10SM OVC045 04/M07 A3001 RMK AO2 SLP162 T00391067
KPHL 
9nm SW 
290754Z 32012KT 10SM OVC041 03/M07 A3002 RMK AO2 SLP164 T00281072 $
KLOM 
11nm NW 
290835Z AUTO 30008KT 10SM OVC042 02/M06 A2999 RMK AO2 T00171058
KVAY 
14nm E 
ASOS 119.325 609-267-1176
290754Z AUTO VRB06KT 10SM OVC044 03/M06 A3000 RMK AO2 SLP159 T00281061 $
TAF
KPNE 
8nm NE 
290629Z 2906/3006 31008KT P6SM OVC045 FM291200 32005KT P6SM SCT045 FM291600 33010KT P6SM SCT200 FM300100 35005KT P6SM SKC
KPHL 
9nm SW 
290629Z 2906/3012 34006KT P6SM OVC045 FM291200 33005KT P6SM SCT045 FM291600 34011KT P6SM SCT200 FM300100 33006KT P6SM SKC
NOTAMs
Click for the latest NOTAMs
NOTAMs are issued by the DoD/FAA and will open in a separate window not controlled by AirNav.

 

 
 

Would you like to see your business listed on this page?

 If your business provides an interesting product or service to pilots, flight crews, aircraft, or users of the Episcopal Hospital Heliport, you should consider listing it here.  To start the listing process, click on the button below
 
Add a business
 

Other Pages about Episcopal Hospital Heliport

Update a link
 
Copyright © AirNav, LLC. All rights reserved. Privacy Policy  Contact